Nashua, NH

6:39 AM EDT on October 14, 2019 (GMT -0400)
Boire

Weather History for KASH - May, 2019

Change the Weather History Date:

Tuesday, May 21, 2019

  Actual Average Record
Temperature  
Mean Temperature 60 °F -  
Max Temperature 66 °F 72 °F 92 °F (1975)
Min Temperature 55 °F 46 °F 31 °F (1964)
Degree Days  
Heating Degree Days 4    
Growing Degree Days 10 (Base 50)    
Moisture  
Dew Point 38 °F    
Average Humidity 43    
Maximum Humidity 64    
Minimum Humidity 32    
Precipitation  
Precipitation 0.00 in - - ()
Sea Level Pressure  
Sea Level Pressure 29.84 in    
Wind  
Wind Speed 14 mph ()    
Max Wind Speed 25 mph    
Max Gust Speed 41 mph    
Visibility 10.0 miles    
Events      
Averages and records for this station are not official NWS values.
T = Trace of Precipitation, MM = Missing Value Source: Averaged Metar Reports

Daily Weather History Graph

Daily Weather History Graph

Search for Another Location

Airport or City:

Astronomy

May. 21, 2019 Rise Set
Actual Time 5:18 AM EDT 8:07 PM EDT
Civil Twilight 4:44 AM EDT 8:41 PM EDT
Nautical Twilight 4:03 AM EDT 9:23 PM EDT
Astronomical Twilight 3:14 AM EDT 10:11 PM EDT
Moon 11:02 PM EDT (5/21) 7:30 AM EDT (5/21)
Length of Visible Light 15h 56m
Length of Day
14h 49m
Waning Gibbous, 91% of the Moon is Illuminated
May 21
Waning Gibbous
May 26
Last Quarter
Jun 3
New
Jun 10
First Quarter
Jun 17
Full

Hourly Weather History & Observations

Time (EDT) Temp. Dew Point Humidity Pressure Visibility Wind Dir Wind Speed Gust Speed Precip Events Conditions
12:56 AM 64.9 °F 46.9 °F 52% 29.73 in 10.0 mi WNW 12.7 mph - N/A   Mostly Cloudy
1:56 AM 62.1 °F 45.0 °F 53% 29.73 in 10.0 mi WNW 12.7 mph 23.0 mph N/A   Partly Cloudy
2:56 AM 60.1 °F 44.1 °F 55% 29.75 in 10.0 mi West 10.4 mph - N/A   Clear
3:56 AM 57.0 °F 43.0 °F 59% 29.75 in 10.0 mi West 10.4 mph 17.3 mph N/A   Clear
4:56 AM 55.9 °F 42.1 °F 60% 29.75 in 10.0 mi West 10.4 mph 17.3 mph N/A   Clear
5:56 AM 55.0 °F 43.0 °F 64% 29.76 in 10.0 mi Variable 6.9 mph - N/A   Clear
6:56 AM 55.9 °F 42.1 °F 60% 29.78 in 10.0 mi WNW 16.1 mph 20.7 mph N/A   Mostly Cloudy
7:56 AM 57.9 °F 39.9 °F 51% 29.79 in 10.0 mi WNW 18.4 mph 25.3 mph N/A   Scattered Clouds
8:56 AM 57.9 °F 37.0 °F 46% 29.81 in 10.0 mi WNW 24.2 mph - N/A   Scattered Clouds
9:56 AM 60.1 °F 34.0 °F 38% 29.80 in 10.0 mi NW 21.9 mph 27.6 mph N/A   Scattered Clouds
10:56 AM 62.1 °F 35.1 °F 37% 29.79 in 10.0 mi NW 25.3 mph 32.2 mph N/A   Scattered Clouds
11:56 AM 64.0 °F 35.1 °F 34% 29.81 in 10.0 mi WNW 21.9 mph 32.2 mph N/A   Scattered Clouds
12:56 PM 64.0 °F 36.0 °F 35% 29.81 in 10.0 mi WNW 15.0 mph 29.9 mph N/A   Scattered Clouds
1:56 PM 66.0 °F 35.1 °F 32% 29.81 in 10.0 mi WNW 18.4 mph 32.2 mph N/A   Scattered Clouds
2:56 PM 66.9 °F 36.0 °F 32% 29.83 in 10.0 mi WNW 24.2 mph 32.2 mph N/A   Scattered Clouds
3:56 PM 64.0 °F 34.0 °F 33% 29.84 in 10.0 mi WNW 25.3 mph 41.4 mph N/A   Mostly Cloudy
4:56 PM 64.0 °F 35.1 °F 34% 29.88 in 10.0 mi NW 21.9 mph 38.0 mph N/A   Mostly Cloudy
5:56 PM 64.0 °F 35.1 °F 34% 29.89 in 10.0 mi WNW 21.9 mph 32.2 mph N/A   Mostly Cloudy
6:56 PM 63.0 °F 34.0 °F 34% 29.92 in 10.0 mi NW 19.6 mph 38.0 mph N/A   Mostly Cloudy
7:56 PM 61.0 °F 34.0 °F 36% 29.94 in 10.0 mi NW 18.4 mph 24.2 mph N/A   Scattered Clouds
8:56 PM 60.1 °F 33.1 °F 36% 29.97 in 10.0 mi WNW 16.1 mph 26.5 mph N/A   Clear
9:56 PM 57.9 °F 34.0 °F 41% 30.00 in 10.0 mi WNW 13.8 mph - N/A   Partly Cloudy
10:56 PM 57.0 °F 34.0 °F 42% 30.01 in 10.0 mi NW 15.0 mph - N/A   Clear
11:56 PM 57.0 °F 35.1 °F 44% 30.02 in 10.0 mi NW 19.6 mph - N/A   Clear